Hourly Data Report for July 02, 2012

HALIFAX STANFIELD INT'L A
NOVA SCOTIA

44°52'48.060" N
63°30'00.050" W
145.40 m
8202250
71395
YHZ

Download Data

Hourly Data (July 2012)
Hourly Data Report for July 2, 2012
TIME
LST
Temp Definition
°C
Dew Point Definition
°C
Rel Hum Definition
%
Precip. Amount Definition
mm

Wind Dir Definition
10's deg

Wind Spd Definition
km/h
Visibility Definition
km
Stn Press Definition
kPa
Hmdx Definition


Wind Chill Definition


Weather Definition


00:00 19.2 17.1 88   14 11 24.1 99.06     Mainly Clear
01:00 18.6 16.6 88   12 6 24.1 99.07     Mainly Clear
02:00 18.1 16.7 92   13 4 24.1 99.04     Mainly Clear
03:00 18.7 16.8 89   14 6 24.1 99.03     Mostly Cloudy
04:00 19.2 16.2 83   14 11 24.1 99.04     Mostly Cloudy
05:00 17.3 16.3 94   34 7 9.7 99.07     Fog
06:00 17.4 16.4 94   2 4 24.1 99.04     Mostly Cloudy
07:00 20.5 16.3 77   35 6 24.1 99.04 25   Mainly Clear
08:00 22.3 15.9 67   31 4 24.1 99.07 27   Mainly Clear
09:00 23.0 15.8 64   32 6 24.1 99.06 27   Mainly Clear
10:00 24.5 15.3 57   29 7 24.1 99.09 29   Mostly Cloudy
11:00 24.1 17.4 66   33 15 24.1 99.11 30   Mainly Clear
12:00 24.6 17.6 65   33 6 24.1 99.06 30   Mainly Clear
13:00 24.3 17.0 64   23 6 24.1 99.03 30   Mostly Cloudy
14:00 21.3 19.0 87   23 15 24.1 99.07 28   Thunderstorms,Rain Showers
15:00 20.5 18.3 87   23 11 24.1 99.02 27   Cloudy
16:00 23.5 18.4 73   29 11 24.1 99.02 30   Mostly Cloudy
17:00 22.8 17.9 74   29 7 24.1 99.03 29   Thunderstorms
18:00 22.2 17.8 76   21 4 24.1 99.01 28   Thunderstorms
19:00 21.8 19.6 87   20 13 24.1 99.05 29   Mostly Cloudy
20:00 20.0 19.4 96   20 6 24.1 99.07 27   Mainly Clear
21:00 19.4 17.8 90   24 7 24.1 99.12     Mainly Clear
22:00 19.6 15.6 78   31 11 24.1 99.13     Clear
23:00 17.8 15.3 85   34 13 24.1 99.11     Clear

Notes on Data Quality.

Legend

  • E = Estimated
  • M = Missing
  • NA = Not Available*
  • [empty] = Indicates an unobserved value
Date modified: